サイディング・スプリング彗星

C/2012 OP ( Siding Spring )

English version
Home page
Updated on May 7, 2015

---------------------------------------------------------------------

・ プロフィール

発見日 2012年7月16日
発見光度 20.0等
発見者 Robert H. McNaught (Siding Spring)

・ 写真集

・ 軌道要素

Epoch 2012 Dec. 19.0 TT = JDT 2456280.5
T 2012 Dec. 4.75253 TT                                  MPC
q   3.6070795            (2000.0)            P               Q
z  +0.0009517      Peri.  351.43729     +0.01708603     -0.42161714
 +/-0.0000016      Node   267.37036     -0.85518028     -0.47596940
e   0.9965672      Incl.  114.82851     -0.51804900     +0.77181094
From 98 observations 2012 July 16-2013 Aug. 1, mean residual 0".4.

・ 光度変化

        m1 = 11.0 + 5 logΔ + 10.0 log r

---------------------------------------------------------------------

軌道要素はM.P.E.C. 2013-Q14に掲載されたものです。
光度グラフはComet for Windowsで作成したものです。

---------------------------------------------------------------------

Copyright(C) Seiichi Yoshida (comet@aerith.net). All rights reserved.